Regional Weather Roundup
Issued by NWS Midland/Odessa, TX

Skip options and go directly to product.
Home | Oldest Version | Previous Version | Current Version | All | Text Only | Save Text | Print | Product List | Glossary On

Skip product version selection by date and time.   
179
ASUS44 KMAF 280910
RWRMAF
MIDLAND AREA WEATHER ROUNDUP
NATIONAL WEATHER SERVICE MIDLAND TX
400 AM CDT THU AUG 28 2014

...IN SOUTHWEST TEXAS AND SOUTHEAST NEW MEXICO...

CITY           SKY/WX    TMP DP  RH WIND       PRES   REMARKS
ALPINE         PTCLDY    68  57  67 W6        30.18F
ANDREWS        FAIR      75  60  58 S3        30.04S
ARTESIA        NOT AVBL
BIG SPRING     CLEAR     79  58  49 SE8       30.04S
CARLSBAD       MOCLDY    74  62  66 CALM      30.03S
DRYDEN           N/A     84  60  44 E7        29.97F
FORT STOCKTON  CLEAR     78  59  51 S12       30.02F
GUAD PASS      CLOUDY    73  56  54 W16       30.20F
HOBBS          PTCLDY    70  63  78 N3        30.07F
MARFA          PTCLDY    63  55  77 N7        30.18S
MIDLAND AIRPK  CLEAR     80  58  47 S5        30.03S
MIDLAND INTL   CLEAR     79  60  52 S7        30.02S
ODESSA         CLEAR     79  59  50 S8        30.03S
PECOS          PTCLDY   N/A N/A N/A S7        29.99S
PRESIDIO       FAIR      82  57  42 N10       30.00S
SEMINOLE       CLEAR     73  59  62 CALM      30.06S
SNYDER         CLEAR     77  61  56 SE7       30.02F
WINK           PTCLDY    80  57  45 SE9       29.99R
$$
...OTHER STATIONS IN TEXAS...

CITY           SKY/WX    TMP DP  RH WIND       PRES   REMARKS
ABILENE        CLEAR     77  59  53 SE12      30.00S
AMARILLO       PTCLDY    68  63  84 S12       30.05F
AUSTIN         PTCLDY    72  67  84 CALM      29.95F
BROWNSVILLE    MOCLDY    81  77  89 W7        29.84F
CORPUS CHRISTI CLOUDY    83  77  82 E10       29.87F
DALLAS FTW     CLEAR     77  60  55 SE5       29.96F
DEL RIO        CLEAR     82  65  56 SE8       29.94S
EL PASO        PTCLDY    72  62  71 CALM      30.10F
HOUSTON INT    PTCLDY    77  73  88 NE5       29.93F
LUBBOCK        CLOUDY    76  63  64 SE12      30.05F
SAN ANGELO     CLEAR     78  62  57 S3        29.98F
SAN ANTONIO    CLEAR     78  69  73 CALM      29.96F
WACO           CLEAR     78  69  73 SE5       29.96F
WICHITA FALLS  NOT AVBL
$$
...OTHER LOCATIONS IN NEW MEXICO...

CITY           SKY/WX    TMP DP  RH WIND       PRES   REMARKS
ALAMAGORDO     PTCLDY    68  57  68 NE8       30.12F
ALBUQUERQUE    CLEAR     66  45  46 N8        30.22F
CANNON AFB     PTCLDY    67  59  75 W3        30.11F
CLOVIS           N/A     66  57  72 SW3       30.12F
HOLLOMAN AFB   PTCLDY    66  60  79 CALM      30.10F
ROSWELL        CLEAR     69  63  81 NW5       30.05F
RUIDOSO        PTCLDY    59  52  77 SW5       30.31S
SANTA FE       CLEAR     52  43  71 N6        30.26F
TRUTH OR CONSE CLEAR     65  59  81 W6        30.17F
TUCUMCARI      CLEAR     69  55  60 W10       30.07S
$$

USA.gov is the U.S. government's official web portal to all federal, state and local government web resources and services.